COSMOS 1933

Last updated on Wed Sep 17 2025 00:02:14 GMT+0000 (Coordinated Universal Time)

1 18958U 88020A 25259.52771386 .00004888 00000+0 25295-3 0 9994 2 18958 82.5120 62.9620 0005705 87.1826 273.0060 15.16001648 23820
UTC large
Height (km)
Speed (km/s)
/
Latitude / Longitude
Inclination (degrees)
Orbital Period (minutes)
Azimuth
Elevation
Range (km)
Doppler Factor

Next 0 passes for location: London (51.5072 / 0.1276)

Sorry there are no passes over London.